Time,TemperatureF,DewpointF,PressureIn,WindDirection,WindDirectionDegrees,WindSpeedMPH,WindSpeedGustMPH,Humidity,HourlyPrecipIn,Conditions,Clouds,dailyrainin,SoftwareType,DateUTC
2014-08-20 00:05:00,66.9,60.2,29.72,WNW,299,0.0,0.0,79,0.00,,,0.00,Wunderground v.1.15,2014-08-20 05:05:00,
2014-08-20 00:10:00,66.8,60.1,29.72,WNW,299,0.0,0.0,79,0.00,,,0.00,Wunderground v.1.15,2014-08-20 05:10:00,
2014-08-20 00:15:00,66.8,60.1,29.72,WNW,299,0.0,0.0,79,0.00,,,0.00,Wunderground v.1.15,2014-08-20 05:15:00,
2014-08-20 00:21:00,66.6,60.2,29.72,WNW,299,0.0,0.0,80,0.00,,,0.00,Wunderground v.1.15,2014-08-20 05:21:00,
2014-08-20 00:26:00,66.4,60.0,29.72,WNW,299,0.0,0.0,80,0.00,,,0.00,Wunderground v.1.15,2014-08-20 05:26:00,
2014-08-20 00:32:00,66.3,59.9,29.72,WNW,299,0.0,0.0,80,0.00,,,0.00,Wunderground v.1.15,2014-08-20 05:32:00,
2014-08-20 00:37:00,66.1,59.7,29.72,WNW,299,0.0,0.0,80,0.00,,,0.00,Wunderground v.1.15,2014-08-20 05:37:00,
2014-08-20 00:43:00,66.0,59.7,29.73,WNW,299,0.0,0.0,80,0.00,,,0.00,Wunderground v.1.15,2014-08-20 05:43:00,
2014-08-20 00:48:00,66.0,60.0,29.73,WNW,299,0.0,0.0,81,0.00,,,0.00,Wunderground v.1.15,2014-08-20 05:48:00,
2014-08-20 00:54:00,65.8,59.8,29.73,WNW,299,0.0,0.0,81,0.00,,,0.00,Wunderground v.1.15,2014-08-20 05:54:00,
2014-08-20 00:59:00,65.6,59.6,29.73,WNW,299,0.0,0.0,81,0.00,,,0.00,Wunderground v.1.15,2014-08-20 05:59:00,
2014-08-20 01:04:00,65.6,59.6,29.73,WNW,299,0.0,0.0,81,0.00,,,0.00,Wunderground v.1.15,2014-08-20 06:04:00,
2014-08-20 01:09:00,65.5,59.9,29.73,WNW,299,0.0,0.0,82,0.00,,,0.00,Wunderground v.1.15,2014-08-20 06:09:00,
2014-08-20 01:14:00,65.5,59.9,29.73,WNW,299,0.0,0.0,82,0.00,,,0.00,Wunderground v.1.15,2014-08-20 06:14:00,
2014-08-20 01:20:00,65.3,59.7,29.73,WNW,299,0.0,0.0,82,0.00,,,0.00,Wunderground v.1.15,2014-08-20 06:20:00,
2014-08-20 01:25:00,65.2,59.6,29.73,WNW,299,0.0,0.0,82,0.00,,,0.00,Wunderground v.1.15,2014-08-20 06:25:00,
2014-08-20 01:31:00,65.2,59.9,29.73,WNW,299,0.0,0.0,83,0.00,,,0.00,Wunderground v.1.15,2014-08-20 06:31:00,
2014-08-20 01:36:00,65.0,59.7,29.73,WNW,299,0.0,0.0,83,0.00,,,0.00,Wunderground v.1.15,2014-08-20 06:36:00,
2014-08-20 01:42:00,64.8,59.5,29.73,WNW,299,0.0,0.0,83,0.00,,,0.00,Wunderground v.1.15,2014-08-20 06:42:00,
2014-08-20 01:48:00,64.8,59.5,29.72,WNW,299,0.0,0.0,83,0.00,,,0.00,Wunderground v.1.15,2014-08-20 06:48:00,
2014-08-20 01:53:00,64.7,59.4,29.72,WNW,299,0.0,0.0,83,0.00,,,0.00,Wunderground v.1.15,2014-08-20 06:53:00,
2014-08-20 01:59:00,64.5,59.2,29.73,WNW,299,0.0,0.0,83,0.00,,,0.00,Wunderground v.1.15,2014-08-20 06:59:00,
2014-08-20 02:05:00,64.5,59.2,29.73,WNW,299,0.0,0.0,83,0.00,,,0.00,Wunderground v.1.15,2014-08-20 07:05:00,
2014-08-20 02:10:00,64.5,59.6,29.73,WNW,299,0.0,0.0,84,0.00,,,0.00,Wunderground v.1.15,2014-08-20 07:10:00,
2014-08-20 02:15:00,64.3,59.4,29.73,WNW,299,0.0,0.0,84,0.00,,,0.00,Wunderground v.1.15,2014-08-20 07:15:00,
2014-08-20 02:21:00,64.3,59.4,29.73,WNW,299,0.0,0.0,84,0.00,,,0.00,Wunderground v.1.15,2014-08-20 07:21:00,
2014-08-20 02:26:00,64.5,59.9,29.73,WNW,299,0.0,0.0,85,0.00,,,0.00,Wunderground v.1.15,2014-08-20 07:26:00,
2014-08-20 02:31:00,64.5,59.9,29.74,WNW,299,0.0,0.0,85,0.00,,,0.00,Wunderground v.1.15,2014-08-20 07:31:00,
2014-08-20 02:37:00,64.3,60.0,29.74,WNW,299,0.0,0.0,86,0.00,,,0.00,Wunderground v.1.15,2014-08-20 07:37:00,
2014-08-20 02:43:00,64.3,60.0,29.74,WNW,299,0.0,0.0,86,0.00,,,0.00,Wunderground v.1.15,2014-08-20 07:43:00,
2014-08-20 02:48:00,64.3,60.0,29.74,WNW,299,0.0,0.0,86,0.00,,,0.00,Wunderground v.1.15,2014-08-20 07:48:00,
2014-08-20 02:54:00,64.3,60.0,29.74,WNW,299,0.0,0.0,86,0.00,,,0.00,Wunderground v.1.15,2014-08-20 07:54:00,
2014-08-20 02:59:00,64.3,60.3,29.75,WNW,299,0.0,0.0,87,0.00,,,0.00,Wunderground v.1.15,2014-08-20 07:59:00,
2014-08-20 03:04:00,64.3,60.3,29.75,WNW,299,0.0,0.0,87,0.00,,,0.00,Wunderground v.1.15,2014-08-20 08:04:00,
2014-08-20 03:10:00,64.3,60.3,29.75,WNW,299,0.0,0.0,87,0.00,,,0.00,Wunderground v.1.15,2014-08-20 08:10:00,
2014-08-20 03:15:00,64.3,60.3,29.74,WNW,299,0.0,0.0,87,0.00,,,0.00,Wunderground v.1.15,2014-08-20 08:15:00,
2014-08-20 03:20:00,64.3,60.3,29.74,WNW,299,0.0,0.0,87,0.00,,,0.00,Wunderground v.1.15,2014-08-20 08:20:00,
2014-08-20 03:26:00,64.3,60.3,29.74,WNW,299,0.0,0.0,87,0.00,,,0.00,Wunderground v.1.15,2014-08-20 08:26:00,
2014-08-20 03:31:00,64.3,60.3,29.74,WNW,299,0.0,0.0,87,0.00,,,0.00,Wunderground v.1.15,2014-08-20 08:31:00,
2014-08-20 03:37:00,64.3,60.3,29.74,WNW,299,0.0,0.0,87,0.00,,,0.00,Wunderground v.1.15,2014-08-20 08:37:00,
2014-08-20 03:42:00,64.2,60.2,29.74,WNW,299,0.0,0.0,87,0.00,,,0.00,Wunderground v.1.15,2014-08-20 08:42:00,
2014-08-20 03:47:00,64.2,60.2,29.74,WNW,299,0.0,0.0,87,0.00,,,0.00,Wunderground v.1.15,2014-08-20 08:47:00,
2014-08-20 03:53:00,64.2,60.2,29.74,WNW,299,0.0,0.0,87,0.00,,,0.00,Wunderground v.1.15,2014-08-20 08:53:00,
2014-08-20 03:58:00,64.2,60.2,29.75,WNW,299,0.0,0.0,87,0.00,,,0.00,Wunderground v.1.15,2014-08-20 08:58:00,
2014-08-20 04:04:00,64.0,60.1,29.75,WNW,299,0.0,0.0,87,0.00,,,0.00,Wunderground v.1.15,2014-08-20 09:04:00,
2014-08-20 04:10:00,64.0,60.4,29.75,WNW,299,0.0,0.0,88,0.00,,,0.00,Wunderground v.1.15,2014-08-20 09:10:00,
2014-08-20 04:16:00,64.0,60.4,29.75,WNW,299,0.0,0.0,88,0.00,,,0.00,Wunderground v.1.15,2014-08-20 09:16:00,
2014-08-20 04:22:00,64.0,60.4,29.75,WNW,299,0.0,0.0,88,0.00,,,0.00,Wunderground v.1.15,2014-08-20 09:22:00,
2014-08-20 04:27:00,64.0,60.4,29.75,WNW,299,0.0,0.0,88,0.00,,,0.00,Wunderground v.1.15,2014-08-20 09:27:00,
2014-08-20 04:32:00,64.0,60.4,29.75,WNW,299,0.0,0.0,88,0.00,,,0.00,Wunderground v.1.15,2014-08-20 09:32:00,
2014-08-20 04:38:00,64.0,60.4,29.75,WNW,299,0.0,0.0,88,0.00,,,0.00,Wunderground v.1.15,2014-08-20 09:38:00,
2014-08-20 04:44:00,64.0,60.4,29.75,WNW,299,0.0,0.0,88,0.00,,,0.00,Wunderground v.1.15,2014-08-20 09:44:00,
2014-08-20 04:49:00,63.9,60.3,29.75,WNW,299,0.0,0.0,88,0.00,,,0.00,Wunderground v.1.15,2014-08-20 09:49:00,
2014-08-20 04:54:00,63.9,60.3,29.75,WNW,299,0.0,0.0,88,0.00,,,0.00,Wunderground v.1.15,2014-08-20 09:54:00,
2014-08-20 05:00:00,63.9,60.3,29.75,WNW,299,0.0,0.0,88,0.00,,,0.00,Wunderground v.1.15,2014-08-20 10:00:00,
2014-08-20 05:06:00,63.9,60.3,29.75,WNW,299,0.0,0.0,88,0.00,,,0.00,Wunderground v.1.15,2014-08-20 10:06:00,
2014-08-20 05:12:00,63.7,60.1,29.75,WNW,299,0.0,0.0,88,0.00,,,0.00,Wunderground v.1.15,2014-08-20 10:12:00,
2014-08-20 05:18:00,63.7,60.1,29.75,WNW,299,0.0,0.0,88,0.00,,,0.00,Wunderground v.1.15,2014-08-20 10:18:00,
2014-08-20 05:23:00,63.7,60.1,29.75,WNW,299,0.0,0.0,88,0.00,,,0.00,Wunderground v.1.15,2014-08-20 10:23:00,
2014-08-20 05:28:00,63.7,60.1,29.75,WNW,299,0.0,0.0,88,0.00,,,0.00,Wunderground v.1.15,2014-08-20 10:28:00,
2014-08-20 05:34:00,63.5,59.9,29.75,WNW,299,0.0,0.0,88,0.00,,,0.00,Wunderground v.1.15,2014-08-20 10:34:00,
2014-08-20 05:40:00,63.5,59.9,29.75,WNW,299,0.0,0.0,88,0.00,,,0.00,Wunderground v.1.15,2014-08-20 10:40:00,
2014-08-20 05:45:00,63.5,60.2,29.75,WNW,299,0.0,0.0,89,0.00,,,0.00,Wunderground v.1.15,2014-08-20 10:45:00,
2014-08-20 05:51:00,63.4,60.1,29.75,WNW,299,0.0,0.0,89,0.00,,,0.00,Wunderground v.1.15,2014-08-20 10:51:00,
2014-08-20 05:57:00,63.4,59.8,29.75,WNW,299,0.0,0.0,88,0.00,,,0.00,Wunderground v.1.15,2014-08-20 10:57:00,
2014-08-20 06:03:00,63.2,59.6,29.75,WNW,299,0.0,0.0,88,0.00,,,0.00,Wunderground v.1.15,2014-08-20 11:03:00,
2014-08-20 06:09:00,63.2,59.6,29.75,WNW,299,0.0,0.0,88,0.00,,,0.00,Wunderground v.1.15,2014-08-20 11:09:00,
2014-08-20 06:14:00,63.1,59.5,29.76,WNW,299,0.0,0.0,88,0.00,,,0.00,Wunderground v.1.15,2014-08-20 11:14:00,
2014-08-20 06:20:00,63.1,59.5,29.76,WNW,299,0.0,0.0,88,0.00,,,0.00,Wunderground v.1.15,2014-08-20 11:20:00,
2014-08-20 06:25:00,62.9,59.3,29.76,WNW,299,0.0,0.0,88,0.00,,,0.00,Wunderground v.1.15,2014-08-20 11:25:00,
2014-08-20 06:31:00,62.9,59.3,29.77,WNW,299,0.0,0.0,88,0.00,,,0.00,Wunderground v.1.15,2014-08-20 11:31:00,
2014-08-20 06:36:00,62.7,59.1,29.77,WNW,299,0.0,0.0,88,0.00,,,0.00,Wunderground v.1.15,2014-08-20 11:36:00,
2014-08-20 06:42:00,62.7,59.1,29.77,WNW,299,0.0,0.0,88,0.00,,,0.00,Wunderground v.1.15,2014-08-20 11:42:00,
2014-08-20 06:47:00,62.6,59.0,29.77,WNW,299,0.0,0.0,88,0.00,,,0.00,Wunderground v.1.15,2014-08-20 11:47:00,
2014-08-20 06:53:00,62.6,59.0,29.77,WNW,299,0.0,0.0,88,0.00,,,0.00,Wunderground v.1.15,2014-08-20 11:53:00,
2014-08-20 06:59:00,62.6,59.0,29.77,WNW,299,0.0,0.0,88,0.00,,,0.00,Wunderground v.1.15,2014-08-20 11:59:00,
2014-08-20 07:05:00,62.6,59.0,29.77,WNW,299,0.0,0.0,88,0.00,,,0.00,Wunderground v.1.15,2014-08-20 12:05:00,
2014-08-20 07:10:00,62.6,59.3,29.77,WNW,299,0.0,0.0,89,0.00,,,0.00,Wunderground v.1.15,2014-08-20 12:10:00,
2014-08-20 07:15:00,62.6,59.3,29.78,WNW,299,0.0,0.0,89,0.00,,,0.00,Wunderground v.1.15,2014-08-20 12:15:00,
2014-08-20 07:21:00,62.6,59.3,29.78,WNW,299,0.0,0.0,89,0.00,,,0.00,Wunderground v.1.15,2014-08-20 12:21:00,
2014-08-20 07:26:00,62.7,59.4,29.78,WNW,299,0.0,0.0,89,0.00,,,0.00,Wunderground v.1.15,2014-08-20 12:26:00,
2014-08-20 07:32:00,62.9,59.6,29.79,WNW,299,0.0,0.0,89,0.00,,,0.00,Wunderground v.1.15,2014-08-20 12:32:00,
2014-08-20 07:37:00,63.1,60.1,29.79,WNW,299,0.0,0.0,90,0.00,,,0.00,Wunderground v.1.15,2014-08-20 12:37:00,
2014-08-20 07:42:00,63.4,60.4,29.79,WNW,298,0.0,0.0,90,0.00,,,0.00,Wunderground v.1.15,2014-08-20 12:42:00,
2014-08-20 07:47:00,63.9,61.2,29.79,WNW,298,0.0,0.0,91,0.00,,,0.00,Wunderground v.1.15,2014-08-20 12:47:00,
2014-08-20 07:53:00,64.3,61.6,29.79,WNW,299,0.0,0.0,91,0.00,,,0.00,Wunderground v.1.15,2014-08-20 12:53:00,
2014-08-20 07:59:00,64.8,62.1,29.80,WNW,298,0.0,0.0,91,0.00,,,0.00,Wunderground v.1.15,2014-08-20 12:59:00,
2014-08-20 08:05:00,65.2,62.5,29.80,WNW,299,0.0,0.0,91,0.00,,,0.00,Wunderground v.1.15,2014-08-20 13:05:00,
2014-08-20 08:10:00,65.6,63.2,29.80,WNW,299,0.0,0.0,92,0.00,,,0.00,Wunderground v.1.15,2014-08-20 13:10:00,
2014-08-20 08:16:00,65.8,63.4,29.80,WNW,299,0.0,0.0,92,0.00,,,0.00,Wunderground v.1.15,2014-08-20 13:16:00,
2014-08-20 08:21:00,66.1,63.4,29.80,WNW,299,0.0,0.0,91,0.00,,,0.00,Wunderground v.1.15,2014-08-20 13:21:00,
2014-08-20 08:27:00,67.3,64.6,29.80,WNW,299,0.0,0.0,91,0.00,,,0.00,Wunderground v.1.15,2014-08-20 13:27:00,
2014-08-20 08:33:00,69.1,65.7,29.80,WNW,298,0.0,0.0,89,0.00,,,0.00,Wunderground v.1.15,2014-08-20 13:33:00,
2014-08-20 08:39:00,70.4,64.3,29.80,WNW,294,0.0,0.0,81,0.00,,,0.00,Wunderground v.1.15,2014-08-20 13:39:00,
2014-08-20 08:45:00,70.9,64.1,29.80,WNW,287,0.0,0.0,79,0.00,,,0.00,Wunderground v.1.15,2014-08-20 13:45:00,
2014-08-20 08:50:00,71.5,64.3,29.80,WNW,287,0.0,0.0,78,0.00,,,0.00,Wunderground v.1.15,2014-08-20 13:50:00,
2014-08-20 08:56:00,71.6,64.0,29.80,WNW,291,0.0,0.0,77,0.00,,,0.00,Wunderground v.1.15,2014-08-20 13:56:00,
2014-08-20 09:01:00,72.1,64.1,29.80,WNW,291,0.0,0.0,76,0.00,,,0.00,Wunderground v.1.15,2014-08-20 14:01:00,
2014-08-20 09:07:00,72.5,63.7,29.80,WNW,292,0.0,0.0,74,0.00,,,0.00,Wunderground v.1.15,2014-08-20 14:07:00,
2014-08-20 09:13:00,73.0,64.2,29.81,WNW,289,0.0,0.0,74,0.00,,,0.00,Wunderground v.1.15,2014-08-20 14:13:00,
2014-08-20 09:18:00,73.5,63.5,29.81,WNW,289,0.0,0.0,71,0.00,,,0.00,Wunderground v.1.15,2014-08-20 14:18:00,
2014-08-20 09:24:00,73.7,63.7,29.81,WNW,296,0.0,2.0,71,0.00,,,0.00,Wunderground v.1.15,2014-08-20 14:24:00,
2014-08-20 09:30:00,74.7,64.7,29.81,SW,223,0.0,0.0,71,0.00,,,0.00,Wunderground v.1.15,2014-08-20 14:30:00,
2014-08-20 09:36:00,74.9,63.6,29.81,SW,224,0.0,0.0,68,0.00,,,0.00,Wunderground v.1.15,2014-08-20 14:36:00,
2014-08-20 09:41:00,75.4,64.5,29.81,WSW,244,0.0,0.0,69,0.00,,,0.00,Wunderground v.1.15,2014-08-20 14:41:00,
2014-08-20 09:46:00,75.3,63.6,29.81,WSW,248,0.0,0.0,67,0.00,,,0.00,Wunderground v.1.15,2014-08-20 14:46:00,
2014-08-20 09:52:00,76.0,63.8,29.81,SW,219,0.0,0.0,66,0.00,,,0.00,Wunderground v.1.15,2014-08-20 14:52:00,
2014-08-20 09:58:00,76.1,63.0,29.80,SW,227,0.0,0.0,64,0.00,,,0.00,Wunderground v.1.15,2014-08-20 14:58:00,
2014-08-20 10:03:00,76.3,64.5,29.80,NW,309,0.0,0.0,67,0.00,,,0.00,Wunderground v.1.15,2014-08-20 15:03:00,
2014-08-20 10:09:00,76.8,64.1,29.80,NW,309,0.0,0.0,65,0.00,,,0.00,Wunderground v.1.15,2014-08-20 15:09:00,
2014-08-20 10:14:00,77.6,64.5,29.81,SSW,213,0.0,0.0,64,0.00,,,0.00,Wunderground v.1.15,2014-08-20 15:14:00,
2014-08-20 10:20:00,77.7,64.5,29.81,WSW,244,0.0,0.0,64,0.00,,,0.00,Wunderground v.1.15,2014-08-20 15:20:00,
2014-08-20 10:26:00,78.8,64.7,29.81,WSW,244,0.0,0.0,62,0.00,,,0.00,Wunderground v.1.15,2014-08-20 15:26:00,
2014-08-20 10:31:00,79.0,64.4,29.81,SW,232,0.0,1.0,61,0.00,,,0.00,Wunderground v.1.15,2014-08-20 15:31:00,
2014-08-20 10:37:00,79.4,66.6,29.81,West,261,0.0,1.0,65,0.00,,,0.00,Wunderground v.1.15,2014-08-20 15:37:00,
2014-08-20 10:43:00,79.2,64.6,29.81,West,261,0.0,2.0,61,0.00,,,0.00,Wunderground v.1.15,2014-08-20 15:43:00,
2014-08-20 10:49:00,79.0,65.3,29.81,West,267,0.0,3.0,63,0.00,,,0.00,Wunderground v.1.15,2014-08-20 15:49:00,
2014-08-20 10:55:00,80.3,67.0,29.81,SW,222,0.0,0.0,64,0.00,,,0.00,Wunderground v.1.15,2014-08-20 15:55:00,
2014-08-20 11:00:00,80.3,65.1,29.81,SE,134,0.0,0.0,60,0.00,,,0.00,Wunderground v.1.15,2014-08-20 16:00:00,
2014-08-20 11:05:00,81.1,67.8,29.81,SSE,160,0.0,0.0,64,0.00,,,0.00,Wunderground v.1.15,2014-08-20 16:05:00,
2014-08-20 11:11:00,80.9,66.7,29.81,SW,232,0.0,0.0,62,0.00,,,0.00,Wunderground v.1.15,2014-08-20 16:11:00,
2014-08-20 11:17:00,81.8,66.1,29.81,SW,232,0.0,1.0,59,0.00,,,0.00,Wunderground v.1.15,2014-08-20 16:17:00,
2014-08-20 11:22:00,81.6,65.9,29.81,SSW,212,0.0,5.0,59,0.00,,,0.00,Wunderground v.1.15,2014-08-20 16:22:00,
2014-08-20 11:27:00,82.6,65.8,29.81,West,260,1.0,5.0,57,0.00,,,0.00,Wunderground v.1.15,2014-08-20 16:27:00,
2014-08-20 11:32:00,81.6,65.9,29.82,SSW,206,1.0,3.0,59,0.00,,,0.00,Wunderground v.1.15,2014-08-20 16:32:00,
2014-08-20 11:38:00,81.2,65.5,29.82,NW,305,1.0,6.0,59,0.00,,,0.00,Wunderground v.1.15,2014-08-20 16:38:00,
2014-08-20 11:44:00,81.1,64.9,29.82,NW,312,1.0,4.0,58,0.00,,,0.00,Wunderground v.1.15,2014-08-20 16:44:00,
2014-08-20 11:49:00,81.1,65.9,29.82,North,0,1.0,4.0,60,0.00,,,0.00,Wunderground v.1.15,2014-08-20 16:49:00,
2014-08-20 11:54:00,82.0,65.3,29.82,NW,308,1.0,5.0,57,0.00,,,0.00,Wunderground v.1.15,2014-08-20 16:54:00,
2014-08-20 12:00:00,83.6,67.3,29.82,WNW,294,1.0,1.0,58,0.00,,,0.00,Wunderground v.1.15,2014-08-20 17:00:00,
2014-08-20 12:05:00,83.6,66.2,29.82,WSW,253,0.0,1.0,56,0.00,,,0.00,Wunderground v.1.15,2014-08-20 17:05:00,
2014-08-20 12:11:00,83.2,64.8,29.82,SW,236,1.0,4.0,54,0.00,,,0.00,Wunderground v.1.15,2014-08-20 17:11:00,
2014-08-20 12:17:00,83.6,64.7,29.83,West,264,1.0,4.0,53,0.00,,,0.00,Wunderground v.1.15,2014-08-20 17:17:00,
2014-08-20 12:22:00,82.0,65.8,29.83,WNW,289,1.0,6.0,58,0.00,,,0.00,Wunderground v.1.15,2014-08-20 17:22:00,
2014-08-20 12:27:00,84.0,66.1,29.83,WSW,243,0.0,6.0,55,0.00,,,0.00,Wunderground v.1.15,2014-08-20 17:27:00,
2014-08-20 12:33:00,84.0,63.9,29.82,SSW,210,1.0,1.0,51,0.00,,,0.00,Wunderground v.1.15,2014-08-20 17:33:00,
2014-08-20 12:39:00,84.1,65.7,29.82,NW,312,1.0,5.0,54,0.00,,,0.00,Wunderground v.1.15,2014-08-20 17:39:00,
2014-08-20 12:44:00,84.7,65.7,29.82,WSW,247,1.0,1.0,53,0.00,,,0.00,Wunderground v.1.15,2014-08-20 17:44:00,
2014-08-20 12:50:00,84.7,65.1,29.82,WNW,299,0.0,0.0,52,0.00,,,0.00,Wunderground v.1.15,2014-08-20 17:50:00,
2014-08-20 12:55:00,83.6,65.2,29.82,West,268,1.0,10.0,54,0.00,,,0.00,Wunderground v.1.15,2014-08-20 17:55:00,
2014-08-20 13:01:00,82.2,64.4,29.81,WSW,258,1.0,1.0,55,0.00,,,0.00,Wunderground v.1.15,2014-08-20 18:01:00,
2014-08-20 13:07:00,80.7,65.0,29.81,WSW,253,0.0,1.0,59,0.00,,,0.00,Wunderground v.1.15,2014-08-20 18:07:00,
2014-08-20 13:13:00,82.6,67.8,29.81,NW,313,1.0,5.0,61,0.00,,,0.00,Wunderground v.1.15,2014-08-20 18:13:00,
2014-08-20 13:19:00,81.4,65.2,29.81,SW,226,0.0,5.0,58,0.00,,,0.00,Wunderground v.1.15,2014-08-20 18:19:00,
2014-08-20 13:25:00,81.6,65.4,29.81,SSE,167,1.0,6.0,58,0.00,,,0.00,Wunderground v.1.15,2014-08-20 18:25:00,
2014-08-20 13:31:00,82.8,66.0,29.81,WNW,289,1.0,1.0,57,0.00,,,0.00,Wunderground v.1.15,2014-08-20 18:31:00,
2014-08-20 13:36:00,83.6,66.8,29.81,WSW,240,1.0,1.0,57,0.00,,,0.00,Wunderground v.1.15,2014-08-20 18:36:00,
2014-08-20 13:42:00,82.6,66.8,29.81,SW,224,0.0,1.0,59,0.00,,,0.00,Wunderground v.1.15,2014-08-20 18:42:00,
2014-08-20 13:47:00,83.8,66.4,29.80,West,271,0.0,1.0,56,0.00,,,0.00,Wunderground v.1.15,2014-08-20 18:47:00,
2014-08-20 13:52:00,85.3,67.8,29.80,SW,234,0.0,0.0,56,0.00,,,0.00,Wunderground v.1.15,2014-08-20 18:52:00,
2014-08-20 13:57:00,85.5,67.5,29.80,WNW,299,0.0,3.0,55,0.00,,,0.00,Wunderground v.1.15,2014-08-20 18:57:00,
2014-08-20 14:03:00,85.9,65.1,29.80,SSW,213,1.0,6.0,50,0.00,,,0.00,Wunderground v.1.15,2014-08-20 19:03:00,
2014-08-20 14:09:00,85.5,63.6,29.80,WNW,294,2.0,6.0,48,0.00,,,0.00,Wunderground v.1.15,2014-08-20 19:09:00,
2014-08-20 14:15:00,86.1,63.5,29.80,SSW,200,1.0,5.0,47,0.00,,,0.00,Wunderground v.1.15,2014-08-20 19:15:00,
2014-08-20 14:20:00,85.1,64.4,29.80,NW,304,1.0,1.0,50,0.00,,,0.00,Wunderground v.1.15,2014-08-20 19:20:00,
2014-08-20 14:26:00,84.3,64.2,29.80,WNW,287,0.0,1.0,51,0.00,,,0.00,Wunderground v.1.15,2014-08-20 19:26:00,
2014-08-20 14:32:00,84.3,64.2,29.80,WSW,239,0.0,2.0,51,0.00,,,0.00,Wunderground v.1.15,2014-08-20 19:32:00,
2014-08-20 14:37:00,84.5,63.8,29.80,SSE,158,1.0,2.0,50,0.00,,,0.00,Wunderground v.1.15,2014-08-20 19:37:00,
2014-08-20 14:43:00,85.3,64.6,29.80,WSW,243,1.0,2.0,50,0.00,,,0.00,Wunderground v.1.15,2014-08-20 19:43:00,
2014-08-20 14:48:00,85.1,63.2,29.80,West,278,1.0,2.0,48,0.00,,,0.00,Wunderground v.1.15,2014-08-20 19:48:00,
2014-08-20 14:54:00,83.8,63.7,29.80,SW,227,1.0,1.0,51,0.00,,,0.00,Wunderground v.1.15,2014-08-20 19:54:00,
2014-08-20 14:59:00,84.9,67.5,29.80,WSW,241,0.0,1.0,56,0.00,,,0.00,Wunderground v.1.15,2014-08-20 19:59:00,
2014-08-20 15:04:00,84.3,65.3,29.80,SW,216,0.0,0.0,53,0.00,,,0.00,Wunderground v.1.15,2014-08-20 20:04:00,
2014-08-20 15:10:00,84.7,65.1,29.80,West,281,0.0,0.0,52,0.00,,,0.00,Wunderground v.1.15,2014-08-20 20:10:00,
2014-08-20 15:16:00,83.6,65.2,29.79,NW,308,0.0,2.0,54,0.00,,,0.00,Wunderground v.1.15,2014-08-20 20:16:00,
2014-08-20 15:21:00,83.8,66.4,29.79,SSW,196,0.0,0.0,56,0.00,,,0.00,Wunderground v.1.15,2014-08-20 20:21:00,
2014-08-20 15:26:00,83.4,64.5,29.79,SW,233,0.0,0.0,53,0.00,,,0.00,Wunderground v.1.15,2014-08-20 20:26:00,
2014-08-20 15:31:00,83.2,64.3,29.79,NW,312,0.0,0.0,53,0.00,,,0.00,Wunderground v.1.15,2014-08-20 20:31:00,
2014-08-20 15:37:00,83.2,65.9,29.79,NW,312,0.0,0.0,56,0.00,,,0.00,Wunderground v.1.15,2014-08-20 20:37:00,
2014-08-20 15:42:00,83.6,66.2,29.79,WSW,253,0.0,0.0,56,0.00,,,0.00,Wunderground v.1.15,2014-08-20 20:42:00,
2014-08-20 15:48:00,84.0,65.0,29.78,NW,315,0.0,2.0,53,0.00,,,0.00,Wunderground v.1.15,2014-08-20 20:48:00,
2014-08-20 15:54:00,84.3,65.3,29.78,West,263,0.0,0.0,53,0.00,,,0.00,Wunderground v.1.15,2014-08-20 20:54:00,
2014-08-20 15:59:00,83.4,64.5,29.79,NW,313,0.0,0.0,53,0.00,,,0.00,Wunderground v.1.15,2014-08-20 20:59:00,
2014-08-20 16:05:00,82.4,65.1,29.79,WSW,254,0.0,0.0,56,0.00,,,0.00,Wunderground v.1.15,2014-08-20 21:05:00,
2014-08-20 16:10:00,82.4,64.6,29.79,WSW,258,0.0,1.0,55,0.00,,,0.00,Wunderground v.1.15,2014-08-20 21:10:00,
2014-08-20 16:16:00,83.4,65.5,29.80,West,265,0.0,5.0,55,0.00,,,0.00,Wunderground v.1.15,2014-08-20 21:16:00,
2014-08-20 16:22:00,84.7,66.2,29.80,West,270,0.0,0.0,54,0.00,,,0.00,Wunderground v.1.15,2014-08-20 21:22:00,
2014-08-20 16:27:00,84.1,66.2,29.80,NW,326,0.0,2.0,55,0.00,,,0.00,Wunderground v.1.15,2014-08-20 21:27:00,
2014-08-20 16:32:00,84.0,65.6,29.79,NW,325,0.0,0.0,54,0.00,,,0.00,Wunderground v.1.15,2014-08-20 21:32:00,
2014-08-20 16:39:00,84.0,63.9,29.79,NW,308,0.0,0.0,51,0.00,,,0.00,Wunderground v.1.15,2014-08-20 21:39:00,
2014-08-20 16:44:00,83.6,65.2,29.80,WSW,257,0.0,0.0,54,0.00,,,0.00,Wunderground v.1.15,2014-08-20 21:44:00,
2014-08-20 16:49:00,83.8,64.3,29.80,WSW,240,0.0,0.0,52,0.00,,,0.00,Wunderground v.1.15,2014-08-20 21:49:00,
2014-08-20 16:54:00,83.2,64.3,29.80,WNW,289,0.0,0.0,53,0.00,,,0.00,Wunderground v.1.15,2014-08-20 21:54:00,
2014-08-20 16:59:00,83.0,64.1,29.80,WNW,289,0.0,0.0,53,0.00,,,0.00,Wunderground v.1.15,2014-08-20 21:59:00,
2014-08-20 17:05:00,84.1,64.6,29.80,WNW,284,0.0,0.0,52,0.00,,,0.00,Wunderground v.1.15,2014-08-20 22:05:00,
2014-08-20 17:10:00,84.1,65.1,29.80,NNW,330,0.0,2.0,53,0.00,,,0.00,Wunderground v.1.15,2014-08-20 22:10:00,
2014-08-20 17:16:00,83.4,65.0,29.81,WSW,243,0.0,2.0,54,0.00,,,0.00,Wunderground v.1.15,2014-08-20 22:16:00,
2014-08-20 17:22:00,83.2,65.9,29.81,NNW,346,0.0,0.0,56,0.00,,,0.00,Wunderground v.1.15,2014-08-20 22:22:00,
2014-08-20 17:27:00,83.2,64.8,29.81,West,260,0.0,1.0,54,0.00,,,0.00,Wunderground v.1.15,2014-08-20 22:27:00,
2014-08-20 17:32:00,82.6,65.3,29.81,WSW,258,0.0,2.0,56,0.00,,,0.00,Wunderground v.1.15,2014-08-20 22:32:00,
2014-08-20 17:37:00,82.0,65.3,29.81,West,263,0.0,2.0,57,0.00,,,0.00,Wunderground v.1.15,2014-08-20 22:37:00,
2014-08-20 17:43:00,81.6,65.9,29.81,West,263,0.0,0.0,59,0.00,,,0.00,Wunderground v.1.15,2014-08-20 22:43:00,
2014-08-20 17:48:00,81.4,65.2,29.81,WSW,256,0.0,0.0,58,0.00,,,0.00,Wunderground v.1.15,2014-08-20 22:48:00,
2014-08-20 17:54:00,81.4,66.2,29.81,WSW,256,0.0,0.0,60,0.00,,,0.00,Wunderground v.1.15,2014-08-20 22:54:00,
2014-08-20 18:01:00,81.6,66.4,29.82,WSW,253,0.0,0.0,60,0.00,,,0.00,Wunderground v.1.15,2014-08-20 23:01:00,
2014-08-20 18:08:00,81.6,65.9,29.82,SSW,203,1.0,2.0,59,0.00,,,0.00,Wunderground v.1.15,2014-08-20 23:08:00,
2014-08-20 18:16:00,81.4,66.7,29.81,SSW,203,0.0,1.0,61,0.00,,,0.00,Wunderground v.1.15,2014-08-20 23:16:00,
2014-08-20 18:23:00,81.1,66.4,29.81,SSW,203,0.0,0.0,61,0.00,,,0.00,Wunderground v.1.15,2014-08-20 23:23:00,
2014-08-20 18:31:00,80.9,66.7,29.81,SSW,203,0.0,0.0,62,0.00,,,0.00,Wunderground v.1.15,2014-08-20 23:31:00,
2014-08-20 18:38:00,80.7,66.5,29.81,SSW,203,0.0,0.0,62,0.00,,,0.00,Wunderground v.1.15,2014-08-20 23:38:00,
2014-08-20 18:43:00,80.7,66.0,29.81,SSW,203,0.0,0.0,61,0.00,,,0.00,Wunderground v.1.15,2014-08-20 23:43:00,
2014-08-20 18:49:00,80.7,66.0,29.81,SSW,203,0.0,0.0,61,0.00,,,0.00,Wunderground v.1.15,2014-08-20 23:49:00,
2014-08-20 18:54:00,80.7,66.0,29.81,SSW,203,0.0,0.0,61,0.00,,,0.00,Wunderground v.1.15,2014-08-20 23:54:00,
2014-08-20 19:00:00,80.7,66.0,29.81,SSW,203,0.0,0.0,61,0.00,,,0.00,Wunderground v.1.15,2014-08-21 00:00:00,
2014-08-20 19:05:00,80.5,66.3,29.81,SSW,203,0.0,0.0,62,0.00,,,0.00,Wunderground v.1.15,2014-08-21 00:05:00,
2014-08-20 19:11:00,80.5,66.3,29.81,SSW,203,0.0,0.0,62,0.00,,,0.00,Wunderground v.1.15,2014-08-21 00:11:00,
2014-08-20 19:21:00,80.3,66.1,29.82,SSW,203,0.0,0.0,62,0.00,,,0.00,Wunderground v.1.15,2014-08-21 00:21:00,
2014-08-20 19:27:00,80.1,66.4,29.82,SSW,203,0.0,0.0,63,0.00,,,0.00,Wunderground v.1.15,2014-08-21 00:27:00,
2014-08-20 19:33:00,79.9,66.2,29.82,SSW,203,0.0,0.0,63,0.00,,,0.00,Wunderground v.1.15,2014-08-21 00:33:00,
2014-08-20 19:38:00,79.8,66.5,29.82,SSW,203,0.0,0.0,64,0.00,,,0.00,Wunderground v.1.15,2014-08-21 00:38:00,
2014-08-20 19:44:00,79.6,66.3,29.83,SSW,203,0.0,0.0,64,0.00,,,0.00,Wunderground v.1.15,2014-08-21 00:44:00,
2014-08-20 19:49:00,79.4,66.2,29.83,SSW,203,0.0,0.0,64,0.00,,,0.00,Wunderground v.1.15,2014-08-21 00:49:00,
2014-08-20 19:56:00,79.2,66.0,29.83,SSW,203,0.0,0.0,64,0.00,,,0.00,Wunderground v.1.15,2014-08-21 00:56:00,
2014-08-20 20:01:00,79.0,66.2,29.83,SSW,203,0.0,0.0,65,0.00,,,0.00,Wunderground v.1.15,2014-08-21 01:01:00,
2014-08-20 20:07:00,78.8,66.0,29.83,SSW,203,0.0,0.0,65,0.00,,,0.00,Wunderground v.1.15,2014-08-21 01:07:00,
2014-08-20 20:12:00,78.5,65.8,29.83,SSW,203,0.0,0.0,65,0.00,,,0.00,Wunderground v.1.15,2014-08-21 01:12:00,
2014-08-20 20:18:00,78.3,66.0,29.83,SSW,203,0.0,0.0,66,0.00,,,0.00,Wunderground v.1.15,2014-08-21 01:18:00,
2014-08-20 20:24:00,78.1,66.2,29.83,SSW,203,0.0,0.0,67,0.00,,,0.00,Wunderground v.1.15,2014-08-21 01:24:00,
2014-08-20 20:29:00,77.7,65.9,29.82,SSW,203,0.0,0.0,67,0.00,,,0.00,Wunderground v.1.15,2014-08-21 01:29:00,
2014-08-20 20:35:00,77.6,65.8,29.82,SSW,203,0.0,0.0,67,0.00,,,0.00,Wunderground v.1.15,2014-08-21 01:35:00,
2014-08-20 20:40:00,77.2,66.2,29.82,SSW,203,0.0,0.0,69,0.00,,,0.00,Wunderground v.1.15,2014-08-21 01:40:00,
2014-08-20 20:46:00,76.8,65.9,29.83,SSW,203,0.0,0.0,69,0.00,,,0.00,Wunderground v.1.15,2014-08-21 01:46:00,
2014-08-20 20:51:00,76.7,66.2,29.83,SSW,203,0.0,0.0,70,0.00,,,0.00,Wunderground v.1.15,2014-08-21 01:51:00,
2014-08-20 20:57:00,76.5,66.0,29.83,SSW,203,0.0,0.0,70,0.00,,,0.00,Wunderground v.1.15,2014-08-21 01:57:00,
2014-08-20 21:03:00,76.1,66.0,29.83,SSW,205,0.0,0.0,71,0.00,,,0.00,Wunderground v.1.15,2014-08-21 02:03:00,
2014-08-20 21:09:00,75.8,65.7,29.83,WSW,246,0.0,0.0,71,0.00,,,0.00,Wunderground v.1.15,2014-08-21 02:09:00,
2014-08-20 21:15:00,75.6,65.9,29.83,WSW,246,0.0,0.0,72,0.00,,,0.00,Wunderground v.1.15,2014-08-21 02:15:00,
2014-08-20 21:20:00,75.4,65.7,29.83,WSW,246,0.0,0.0,72,0.00,,,0.00,Wunderground v.1.15,2014-08-21 02:20:00,
2014-08-20 21:26:00,75.3,66.0,29.83,WSW,246,0.0,0.0,73,0.00,,,0.00,Wunderground v.1.15,2014-08-21 02:26:00,
2014-08-20 21:32:00,75.1,66.2,29.84,WSW,246,0.0,0.0,74,0.00,,,0.00,Wunderground v.1.15,2014-08-21 02:32:00,
2014-08-20 21:37:00,74.9,66.1,29.84,WSW,246,0.0,0.0,74,0.00,,,0.00,Wunderground v.1.15,2014-08-21 02:37:00,
2014-08-20 21:43:00,74.7,65.9,29.84,WSW,246,0.0,0.0,74,0.00,,,0.00,Wunderground v.1.15,2014-08-21 02:43:00,
2014-08-20 21:49:00,74.6,66.1,29.84,WSW,246,0.0,0.0,75,0.00,,,0.00,Wunderground v.1.15,2014-08-21 02:49:00,
2014-08-20 21:54:00,74.4,66.3,29.84,WSW,246,0.0,0.0,76,0.00,,,0.00,Wunderground v.1.15,2014-08-21 02:54:00,
2014-08-20 21:59:00,74.2,66.1,29.85,WSW,246,0.0,0.0,76,0.00,,,0.00,Wunderground v.1.15,2014-08-21 02:59:00,
2014-08-20 22:04:00,74.0,66.0,29.85,WSW,246,0.0,0.0,76,0.00,,,0.00,Wunderground v.1.15,2014-08-21 03:04:00,
2014-08-20 22:10:00,73.9,66.2,29.85,WSW,246,0.0,0.0,77,0.00,,,0.00,Wunderground v.1.15,2014-08-21 03:10:00,
2014-08-20 22:16:00,73.7,66.0,29.85,WSW,246,0.0,0.0,77,0.00,,,0.00,Wunderground v.1.15,2014-08-21 03:16:00,
2014-08-20 22:21:00,73.7,66.0,29.85,WSW,246,0.0,0.0,77,0.00,,,0.00,Wunderground v.1.15,2014-08-21 03:21:00,
2014-08-20 22:27:00,73.5,66.2,29.85,WSW,246,0.0,0.0,78,0.00,,,0.00,Wunderground v.1.15,2014-08-21 03:27:00,
2014-08-20 22:32:00,73.3,66.0,29.85,WSW,246,0.0,0.0,78,0.00,,,0.00,Wunderground v.1.15,2014-08-21 03:32:00,
2014-08-20 22:39:00,73.2,65.9,29.85,WSW,246,0.0,0.0,78,0.00,,,0.00,Wunderground v.1.15,2014-08-21 03:39:00,
2014-08-20 22:44:00,73.2,66.7,29.85,WSW,246,0.0,0.0,80,0.00,,,0.00,Wunderground v.1.15,2014-08-21 03:44:00,
2014-08-20 22:50:00,73.0,66.5,29.85,WSW,246,0.0,0.0,80,0.00,,,0.00,Wunderground v.1.15,2014-08-21 03:50:00,
2014-08-20 22:55:00,72.8,66.3,29.85,WSW,246,0.0,0.0,80,0.00,,,0.00,Wunderground v.1.15,2014-08-21 03:55:00,
2014-08-20 23:01:00,72.7,66.5,29.86,WSW,246,0.0,0.0,81,0.00,,,0.00,Wunderground v.1.15,2014-08-21 04:01:00,
2014-08-20 23:02:00,72.7,66.5,29.86,WSW,246,0.0,0.0,81,0.00,,,0.00,Wunderground v.1.15,2014-08-21 04:02:00,
2014-08-20 23:04:00,72.7,66.5,29.86,WSW,246,0.0,0.0,81,0.00,,,0.00,Wunderground v.1.15,2014-08-21 04:04:00,
2014-08-20 23:06:00,72.7,66.5,29.86,WSW,246,0.0,0.0,81,0.00,,,0.00,Wunderground v.1.15,2014-08-21 04:06:00,
2014-08-20 23:11:00,72.5,66.3,29.86,WSW,246,0.0,0.0,81,0.00,,,0.00,Wunderground v.1.15,2014-08-21 04:11:00,
2014-08-20 23:14:00,72.5,66.3,29.85,WSW,246,0.0,0.0,81,0.00,,,0.00,Wunderground v.1.15,2014-08-21 04:14:00,